Home > Weather > Lynchburg > Past weeks

Flag for U.S.A. Weather for the Past 2 Weeks in Lynchburg, Virginia, U.S.A.

Now
25 °F

More clouds than sun.


Feels Like: 17 °F
Forecast: 15 / 33 °F
Wind: 7 mph from South

Location: Lynchburg Regional Airport

Current Time: Feb 12, 2016 at 12:08:01 PM

Latest Report: Feb 12, 2016 at 10:54 AM


Visibility: 10 mi

Pressure: 30.23 "Hg

Humidity: 42%

Dew point: 5 °F

Location of LynchburgLocation

Historic Weather in Lynchburg — Graph

°F

Lynchburg Temperature Yesterday

Maximum temperature yesterday: 30 °F (at 2:54 PM)
Minimum temperature yesterday: 15 °F (at 3:54 AM)
Average temperature yesterday: 23 °F

High & Low Weather Summary for the Past Weeks

 TemperatureHumidityPressure
High65 °F (Feb 1, 11:54 AM)100% (Jan 28, 10:54 AM)30.48 "Hg (Jan 28, 10:54 AM)
Low15 °F (Feb 11, 3:54 AM)26% (Feb 11, 2:54 PM)29.57 "Hg (Feb 9, 3:54 AM)
Average37 °F66%30.01 "Hg
* Reported Jan 28 10:54 AM — Feb 12 10:54 AM, Lynchburg, Weather by CustomWeather, © 2016

Note: Actual official high and low records may vary slightly from our data, if they occured in-between our weather recording intervals... More about our weather records

Advertising

Lynchburg Weather History for the Previous 24 Hours

 ConditionsComfort  
Time TempWeatherWind HumidityBarometerVisibility
10:54 AM
Fri, Feb 12
25 °FMore clouds than sun.7 mph42%30.23 "Hg10 mi
9:54 AM23 °FMostly cloudy.8 mph46%30.25 "Hg10 mi
8:54 AM22 °FMostly cloudy.5 mph50%30.27 "Hg10 mi
7:54 AM21 °FOvercast.3 mph55%30.29 "Hg10 mi
6:54 AM21 °FOvercast.No wind57%30.30 "Hg10 mi
5:54 AM18 °FPassing clouds.No wind59%30.29 "Hg10 mi
4:54 AM20 °FPassing clouds.3 mph57%30.29 "Hg10 mi
3:54 AM21 °FOvercast.No wind50%30.29 "Hg10 mi
2:54 AM22 °FOvercast.3 mph46%30.29 "Hg10 mi
1:54 AM22 °FPassing clouds.3 mph48%30.29 "Hg10 mi
12:54 AM22 °FClear.5 mph46%30.31 "Hg10 mi
11:54 PM
Thu, Feb 11
21 °FClear.5 mph45%30.31 "Hg10 mi
10:54 PM20 °FClear.5 mph50%30.32 "Hg10 mi
9:54 PM23 °FClear.No wind40%30.31 "Hg10 mi
8:54 PM23 °FClear.No wind38%30.30 "Hg10 mi
7:54 PM25 °FClear.6 mph33%30.28 "Hg10 mi
6:54 PM26 °FClear.8 mph31%30.25 "Hg10 mi
5:54 PM27 °FClear.6 mph29%30.23 "Hg10 mi
3:54 PM30 °FSunny.7 mph27%30.17 "Hg10 mi
2:54 PM30 °FSunny.12 mph26%30.16 "Hg10 mi
1:54 PM29 °FSunny.14 mph27%30.16 "Hg10 mi
12:54 PM28 °FSunny.6 mph31%30.17 "Hg10 mi
Weather by CustomWeather, © 2016

See weather overviewHow to use our weather pages